IBE006 GCLP-LMML

Flight info

Callsign IBE006
Flight time N/A
Altitude 32000
Route KORAL UG5 SONSO UN871 ESS UG5 SAK UR975 FES UA411 BNA UA31 CSO UW254 DIMAO UL874 OMENI L30 NEVNA TIVOR SUDOX
Aircraft B772/H-SDE2E3FGHIJ5LORVWXY/LB1D1

Departure

Time N/A
Airport Gran Canaria Airport (GCLP)

Arrival

Time 2026-05-07 10:09
Airport Malta International Airport (LMML)
Time Latitude Longitude Altitude Speed Heading
2026-05-07 07:06 30.06405 -12.01441 32008 ft 488 kts 54°
2026-05-07 07:06 30.08320 -11.98204 32008 ft 488 kts 54°
2026-05-07 07:07 30.12145 -11.91726 32008 ft 488 kts 54°
2026-05-07 07:07 30.15964 -11.85248 32008 ft 488 kts 54°
2026-05-07 07:08 30.19787 -11.78754 32008 ft 488 kts 54°
2026-05-07 07:08 30.23627 -11.72220 32009 ft 495 kts 54°
2026-05-07 07:09 30.27515 -11.65594 32009 ft 500 kts 54°
2026-05-07 07:09 30.31433 -11.58904 32008 ft 503 kts 54°
2026-05-07 07:10 30.35362 -11.52184 32008 ft 505 kts 54°
2026-05-07 07:10 30.39307 -11.45427 32008 ft 506 kts 54°
2026-05-07 07:11 30.43252 -11.38658 32008 ft 507 kts 54°
2026-05-07 07:11 30.47199 -11.31874 32008 ft 508 kts 54°
2026-05-07 07:12 30.51145 -11.25081 32007 ft 508 kts 54°
2026-05-07 07:12 30.55087 -11.18281 32007 ft 508 kts 54°
2026-05-07 07:13 30.59026 -11.11478 32007 ft 508 kts 54°
2026-05-07 07:13 30.62970 -11.04652 32007 ft 508 kts 54°
2026-05-07 07:14 30.66908 -10.97825 32007 ft 509 kts 54°
2026-05-07 07:14 30.70839 -10.90998 32007 ft 509 kts 54°
2026-05-07 07:15 30.74796 -10.84116 32007 ft 509 kts 54°
2026-05-07 07:15 30.78724 -10.77271 32007 ft 509 kts 54°
2026-05-07 07:16 30.82622 -10.70467 32007 ft 509 kts 54°
2026-05-07 07:16 30.86566 -10.63570 32007 ft 509 kts 54°
2026-05-07 07:17 30.90458 -10.56752 32007 ft 509 kts 54°
2026-05-07 07:17 30.94371 -10.49887 32007 ft 509 kts 55°
2026-05-07 07:18 30.98306 -10.42969 32006 ft 509 kts 55°
2026-05-07 07:18 31.02209 -10.36097 32006 ft 509 kts 55°
2026-05-07 07:19 31.06111 -10.29215 32006 ft 509 kts 55°
2026-05-07 07:19 31.10011 -10.22324 32006 ft 509 kts 55°
2026-05-07 07:20 31.13908 -10.15425 32006 ft 509 kts 55°
2026-05-07 07:20 31.17797 -10.08527 32006 ft 509 kts 55°
2026-05-07 07:21 31.21687 -10.01618 32006 ft 509 kts 55°
2026-05-07 07:21 31.25544 -9.94755 32006 ft 509 kts 55°
2026-05-07 07:22 31.29423 -9.87838 32006 ft 509 kts 55°
2026-05-07 07:22 31.33299 -9.80916 32006 ft 509 kts 55°
2026-05-07 07:23 31.37173 -9.73987 32006 ft 509 kts 55°
2026-05-07 07:23 31.41570 -9.67561 32015 ft 505 kts 41°
2026-05-07 07:24 31.46976 -9.62356 32011 ft 503 kts 35°
2026-05-07 07:24 31.52493 -9.57305 32003 ft 503 kts 36°
2026-05-07 07:25 31.60778 -9.49651 31996 ft 503 kts 36°
2026-05-07 07:26 31.66243 -9.44594 31992 ft 503 kts 36°
2026-05-07 07:26 31.71776 -9.39466 31987 ft 503 kts 36°
2026-05-07 07:27 31.77275 -9.34361 31983 ft 503 kts 36°
2026-05-07 07:27 31.82768 -9.29254 31979 ft 503 kts 36°
2026-05-07 07:28 31.88257 -9.24143 31980 ft 503 kts 36°
2026-05-07 07:28 31.93712 -9.19056 31980 ft 503 kts 36°
2026-05-07 07:29 31.98308 -9.14764 31979 ft 503 kts 36°
2026-05-07 07:29 32.03790 -9.09636 31979 ft 503 kts 36°
2026-05-07 07:30 32.09278 -9.04495 31979 ft 503 kts 36°
2026-05-07 07:30 32.14758 -8.99353 31979 ft 503 kts 36°
2026-05-07 07:31 32.20237 -8.94204 31979 ft 503 kts 36°
2026-05-07 07:31 32.25712 -8.89051 31979 ft 503 kts 36°
2026-05-07 07:32 32.31186 -8.83891 31979 ft 503 kts 36°
2026-05-07 07:32 32.36660 -8.78722 31979 ft 503 kts 36°
2026-05-07 07:33 32.42129 -8.73549 31979 ft 503 kts 36°
2026-05-07 07:33 32.47599 -8.68368 31979 ft 503 kts 36°
2026-05-07 07:34 32.53067 -8.63180 31979 ft 503 kts 36°
2026-05-07 07:34 32.58530 -8.57989 31978 ft 504 kts 36°
2026-05-07 07:35 32.63995 -8.52787 31978 ft 504 kts 36°
2026-05-07 07:35 32.69454 -8.47583 31978 ft 504 kts 36°
2026-05-07 07:36 32.74918 -8.42365 31978 ft 504 kts 36°
2026-05-07 07:36 32.80374 -8.37146 31978 ft 504 kts 37°
2026-05-07 07:37 32.85828 -8.31922 31978 ft 504 kts 37°
2026-05-07 07:37 32.91280 -8.26690 31982 ft 503 kts 37°
2026-05-07 07:38 32.96733 -8.21448 31986 ft 503 kts 37°
2026-05-07 07:38 33.02178 -8.16207 31991 ft 503 kts 37°
2026-05-07 07:39 33.07622 -8.10957 31995 ft 503 kts 37°
2026-05-07 07:39 33.13063 -8.05702 31999 ft 503 kts 37°
2026-05-07 07:40 33.18507 -8.00434 32003 ft 503 kts 37°
2026-05-07 07:40 33.23946 -7.95163 32008 ft 503 kts 37°
2026-05-07 07:41 33.29416 -7.89854 32012 ft 503 kts 37°
2026-05-07 07:41 33.34849 -7.84572 32012 ft 504 kts 37°
2026-05-07 07:42 33.40286 -7.79277 32012 ft 504 kts 37°
2026-05-07 07:42 33.45713 -7.73982 32012 ft 504 kts 37°
2026-05-07 07:43 33.50719 -7.68094 32015 ft 506 kts 46°
2026-05-07 07:43 33.52817 -7.64703 32010 ft 509 kts 57°
2026-05-07 07:43 33.54379 -7.60896 32016 ft 511 kts 68°
2026-05-07 07:43 33.55352 -7.56794 32019 ft 512 kts 79°
2026-05-07 07:44 33.55831 -7.52570 32016 ft 513 kts 83°
2026-05-07 07:44 33.56593 -7.44064 31986 ft 513 kts 84°
2026-05-07 07:45 33.57389 -7.35555 31978 ft 513 kts 81°
2026-05-07 07:45 33.58702 -7.27147 31980 ft 513 kts 78°
2026-05-07 07:46 33.60056 -7.18754 31980 ft 513 kts 78°
2026-05-07 07:46 33.61394 -7.10344 31979 ft 513 kts 78°
2026-05-07 07:47 33.62727 -7.01946 31979 ft 513 kts 78°
2026-05-07 07:47 33.64054 -6.93540 31979 ft 513 kts 79°
2026-05-07 07:48 33.65377 -6.85123 31979 ft 513 kts 79°
2026-05-07 07:48 33.66692 -6.76720 31979 ft 513 kts 79°
2026-05-07 07:49 33.68003 -6.68303 31979 ft 513 kts 79°
2026-05-07 07:49 33.69308 -6.59879 31979 ft 513 kts 79°
2026-05-07 07:50 33.70607 -6.51465 31979 ft 513 kts 79°
2026-05-07 07:50 33.71900 -6.43039 31979 ft 513 kts 79°
2026-05-07 07:51 33.73188 -6.34613 31979 ft 513 kts 79°
2026-05-07 07:51 33.74470 -6.26187 31979 ft 513 kts 79°
2026-05-07 07:52 33.75746 -6.17753 31978 ft 513 kts 79°
2026-05-07 07:52 33.77017 -6.09316 31978 ft 513 kts 79°
2026-05-07 07:53 33.78282 -6.00884 31978 ft 513 kts 79°
2026-05-07 07:53 33.79541 -5.92444 31978 ft 513 kts 79°
2026-05-07 07:54 33.80795 -5.83999 31978 ft 513 kts 79°
2026-05-07 07:54 33.82042 -5.75560 31978 ft 513 kts 79°
2026-05-07 07:55 33.83284 -5.67111 31978 ft 513 kts 79°
2026-05-07 07:55 33.84520 -5.58663 31978 ft 513 kts 79°
2026-05-07 07:56 33.85750 -5.50212 31978 ft 513 kts 79°
2026-05-07 07:56 33.86975 -5.41759 31981 ft 513 kts 79°
2026-05-07 07:57 33.88193 -5.33304 31986 ft 513 kts 79°
2026-05-07 07:57 33.89407 -5.24840 31990 ft 513 kts 79°
2026-05-07 07:58 33.90613 -5.16386 31994 ft 513 kts 79°
2026-05-07 07:58 33.91814 -5.07929 31998 ft 513 kts 80°
2026-05-07 07:59 33.93010 -4.99460 32003 ft 513 kts 79°
2026-05-07 07:59 33.94217 -4.91000 32007 ft 513 kts 80°
2026-05-07 08:00 33.95409 -4.82531 32011 ft 513 kts 79°
2026-05-07 08:00 33.96604 -4.74063 32012 ft 513 kts 80°
2026-05-07 08:01 33.97785 -4.65591 32012 ft 513 kts 80°
2026-05-07 08:01 33.99235 -4.57187 32012 ft 512 kts 70°
2026-05-07 08:01 34.00692 -4.53294 32020 ft 510 kts 59°
2026-05-07 08:02 34.02691 -4.49793 32020 ft 507 kts 49°
2026-05-07 08:02 34.07310 -4.43369 31996 ft 507 kts 46°
2026-05-07 08:03 34.11596 -4.36609 31989 ft 509 kts 58°
2026-05-07 08:03 34.15164 -4.29218 31992 ft 510 kts 58°
2026-05-07 08:04 34.18702 -4.21805 31995 ft 510 kts 58°
2026-05-07 08:04 34.22239 -4.14382 31999 ft 510 kts 58°
2026-05-07 08:05 34.25771 -4.06953 32004 ft 510 kts 58°
2026-05-07 08:05 34.29286 -3.99511 32008 ft 510 kts 59°
2026-05-07 08:06 34.32764 -3.92038 32012 ft 510 kts 59°
2026-05-07 08:06 34.36239 -3.84556 32016 ft 510 kts 59°
2026-05-07 08:07 34.39709 -3.77076 32011 ft 510 kts 59°
2026-05-07 08:07 34.43182 -3.69581 32002 ft 510 kts 59°
2026-05-07 08:08 34.46089 -3.63299 31995 ft 510 kts 59°
2026-05-07 08:08 34.49537 -3.55841 31986 ft 510 kts 59°
2026-05-07 08:09 34.53005 -3.48330 31979 ft 510 kts 59°
2026-05-07 08:09 34.56469 -3.40818 31980 ft 510 kts 59°
2026-05-07 08:10 34.59930 -3.33302 31980 ft 510 kts 59°
2026-05-07 08:10 34.63389 -3.25784 31980 ft 510 kts 59°
2026-05-07 08:11 34.66847 -3.18256 31980 ft 510 kts 59°
2026-05-07 08:11 34.70301 -3.10729 31980 ft 510 kts 59°
2026-05-07 08:12 34.73776 -3.03146 31980 ft 510 kts 59°
2026-05-07 08:12 34.77197 -2.95653 31980 ft 510 kts 59°
2026-05-07 08:13 34.80643 -2.88113 31979 ft 510 kts 59°
2026-05-07 08:13 34.84089 -2.80565 31979 ft 510 kts 59°
2026-05-07 08:14 34.87534 -2.73010 31979 ft 510 kts 59°
2026-05-07 08:14 34.90974 -2.65456 31979 ft 510 kts 59°
2026-05-07 08:15 34.94438 -2.57842 31979 ft 510 kts 59°
2026-05-07 08:15 34.97852 -2.50328 31979 ft 510 kts 59°
2026-05-07 08:16 35.01287 -2.42758 31979 ft 510 kts 59°
2026-05-07 08:16 35.04717 -2.35188 31979 ft 510 kts 59°
2026-05-07 08:17 35.08174 -2.27550 31979 ft 510 kts 59°
2026-05-07 08:17 35.11602 -2.19967 31979 ft 510 kts 59°
2026-05-07 08:18 35.15003 -2.12433 31979 ft 510 kts 59°
2026-05-07 08:18 35.18427 -2.04841 31979 ft 510 kts 59°
2026-05-07 08:19 35.21851 -1.97238 31979 ft 510 kts 60°
2026-05-07 08:19 35.25272 -1.89634 31979 ft 510 kts 60°
2026-05-07 08:20 35.28692 -1.82021 31979 ft 510 kts 60°
2026-05-07 08:20 35.32107 -1.74411 31979 ft 510 kts 60°
2026-05-07 08:21 35.35520 -1.66795 31979 ft 510 kts 60°
2026-05-07 08:21 35.38933 -1.59170 31979 ft 510 kts 60°
2026-05-07 08:22 35.42346 -1.51539 31979 ft 510 kts 60°
2026-05-07 08:22 35.45750 -1.43915 31979 ft 510 kts 60°
2026-05-07 08:23 35.49157 -1.36276 31979 ft 510 kts 60°
2026-05-07 08:23 35.52561 -1.28634 31979 ft 510 kts 60°
2026-05-07 08:24 35.55963 -1.20989 31979 ft 510 kts 60°
2026-05-07 08:24 35.59365 -1.13332 31979 ft 510 kts 60°
2026-05-07 08:25 35.62760 -1.05681 31978 ft 510 kts 60°
2026-05-07 08:25 35.66159 -0.98013 31978 ft 510 kts 60°
2026-05-07 08:26 35.71247 -0.86518 31978 ft 510 kts 60°
2026-05-07 08:26 35.74638 -0.78846 31978 ft 510 kts 60°
2026-05-07 08:27 35.78025 -0.71171 31978 ft 510 kts 60°
2026-05-07 08:27 35.81414 -0.63485 31978 ft 510 kts 60°
2026-05-07 08:28 35.84796 -0.55803 31978 ft 510 kts 60°
2026-05-07 08:28 35.88202 -0.48059 31978 ft 510 kts 60°
2026-05-07 08:29 35.91584 -0.40358 31978 ft 510 kts 60°
2026-05-07 08:29 35.94961 -0.32661 31978 ft 510 kts 60°
2026-05-07 08:30 35.98317 -0.25001 31978 ft 510 kts 60°
2026-05-07 08:30 36.01691 -0.17292 31978 ft 510 kts 60°
2026-05-07 08:31 36.05086 -0.09526 31978 ft 510 kts 60°
2026-05-07 08:31 36.08457 -0.01803 31978 ft 510 kts 60°
2026-05-07 08:32 36.11801 0.05866 31978 ft 510 kts 60°
2026-05-07 08:32 36.15171 0.13604 31978 ft 510 kts 60°
2026-05-07 08:33 36.18533 0.21333 31978 ft 510 kts 60°
2026-05-07 08:33 36.21896 0.29074 31978 ft 510 kts 60°
2026-05-07 08:34 36.25279 0.36869 31978 ft 510 kts 60°
2026-05-07 08:34 36.28616 0.44570 31978 ft 510 kts 60°
2026-05-07 08:35 36.31975 0.52327 31979 ft 510 kts 60°
2026-05-07 08:35 36.35328 0.60081 31983 ft 510 kts 60°
2026-05-07 08:36 36.38681 0.67845 31988 ft 510 kts 60°
2026-05-07 08:36 36.42029 0.75608 31992 ft 510 kts 60°
2026-05-07 08:37 36.45378 0.83381 31996 ft 510 kts 60°
2026-05-07 08:37 36.48721 0.91150 32001 ft 510 kts 60°
2026-05-07 08:38 36.52067 0.98934 32005 ft 510 kts 60°
2026-05-07 08:38 36.55408 1.06718 32009 ft 510 kts 60°
2026-05-07 08:39 36.58749 1.14509 32012 ft 510 kts 60°
2026-05-07 08:39 36.62086 1.22302 32012 ft 510 kts 60°
2026-05-07 08:40 36.65421 1.30098 32012 ft 510 kts 60°
2026-05-07 08:40 36.68755 1.37903 32012 ft 510 kts 60°
2026-05-07 08:41 36.72088 1.45713 32012 ft 510 kts 60°
2026-05-07 08:41 36.75420 1.53532 32012 ft 510 kts 60°
2026-05-07 08:42 36.78749 1.61351 32012 ft 510 kts 60°
2026-05-07 08:42 36.82076 1.69175 32012 ft 510 kts 60°
2026-05-07 08:43 36.85402 1.77007 32012 ft 510 kts 60°
2026-05-07 08:43 36.88727 1.84846 32012 ft 510 kts 60°
2026-05-07 08:44 36.92049 1.92687 32012 ft 510 kts 60°
2026-05-07 08:44 36.95369 2.00532 32012 ft 511 kts 60°
2026-05-07 08:45 36.98687 2.08383 32012 ft 511 kts 60°
2026-05-07 08:45 37.02001 2.16233 32012 ft 511 kts 61°
2026-05-07 08:46 37.05284 2.24121 32010 ft 511 kts 60°
2026-05-07 08:46 37.07554 2.32509 32018 ft 513 kts 81°
2026-05-07 08:47 37.07765 2.36966 32019 ft 513 kts 92°
2026-05-07 08:47 37.07340 2.41397 32017 ft 513 kts 103°
2026-05-07 08:47 37.04671 2.49592 32013 ft 509 kts 124°
2026-05-07 08:48 37.00760 2.56989 31990 ft 509 kts 126°
2026-05-07 08:48 36.97471 2.63096 31979 ft 509 kts 126°
2026-05-07 08:49 36.93508 2.70438 31978 ft 509 kts 126°
2026-05-07 08:49 36.89517 2.77816 31978 ft 509 kts 126°
2026-05-07 08:50 36.85705 2.85200 31977 ft 511 kts 118°
2026-05-07 08:50 36.84394 2.89324 31993 ft 512 kts 107°
2026-05-07 08:50 36.83686 2.93733 32007 ft 513 kts 96°
2026-05-07 08:51 36.83585 3.02572 32007 ft 513 kts 89°
2026-05-07 08:51 36.83672 3.11484 31993 ft 514 kts 89°
2026-05-07 08:52 36.83512 3.20391 31984 ft 514 kts 94°
2026-05-07 08:52 36.82936 3.29330 31979 ft 514 kts 95°
2026-05-07 08:53 36.82381 3.38223 31979 ft 514 kts 95°
2026-05-07 08:53 36.81820 3.47109 31979 ft 514 kts 95°
2026-05-07 08:54 36.81252 3.55993 31979 ft 514 kts 95°
2026-05-07 08:54 36.80677 3.64874 31979 ft 514 kts 95°
2026-05-07 08:55 36.80096 3.73754 31979 ft 514 kts 95°
2026-05-07 08:55 36.79509 3.82631 31979 ft 514 kts 95°
2026-05-07 08:56 36.78914 3.91515 31979 ft 514 kts 95°
2026-05-07 08:56 36.78314 4.00384 31979 ft 514 kts 95°
2026-05-07 08:57 36.77706 4.09263 31979 ft 514 kts 95°
2026-05-07 08:57 36.77092 4.18135 31979 ft 514 kts 95°
2026-05-07 08:58 36.76476 4.26952 31979 ft 514 kts 95°
2026-05-07 08:58 36.75849 4.35821 31978 ft 513 kts 95°
2026-05-07 08:59 36.75215 4.44686 31978 ft 513 kts 95°
2026-05-07 08:59 36.74575 4.53560 31978 ft 513 kts 95°
2026-05-07 09:00 36.73928 4.62420 31978 ft 513 kts 95°
2026-05-07 09:00 36.73275 4.71281 31978 ft 513 kts 95°
2026-05-07 09:01 36.72615 4.80146 31978 ft 513 kts 95°
2026-05-07 09:01 36.71948 4.89009 31978 ft 513 kts 96°
2026-05-07 09:02 36.71275 4.97865 31978 ft 513 kts 96°
2026-05-07 09:02 36.70595 5.06727 31978 ft 513 kts 96°
2026-05-07 09:03 36.69909 5.15585 31978 ft 513 kts 96°
2026-05-07 09:03 36.69217 5.24431 31978 ft 513 kts 96°
2026-05-07 09:04 36.68518 5.33284 31978 ft 513 kts 96°
2026-05-07 09:04 36.67811 5.42142 31978 ft 513 kts 96°
2026-05-07 09:05 36.67099 5.50985 31978 ft 513 kts 96°
2026-05-07 09:05 36.66375 5.59892 31978 ft 513 kts 96°
2026-05-07 09:06 36.65654 5.68688 31978 ft 513 kts 96°
2026-05-07 09:06 36.64922 5.77531 31978 ft 513 kts 96°
2026-05-07 09:07 36.64184 5.86369 31978 ft 513 kts 96°
2026-05-07 09:07 36.63439 5.95210 31978 ft 513 kts 96°
2026-05-07 09:08 36.62687 6.04057 31981 ft 513 kts 96°
2026-05-07 09:08 36.61929 6.12885 31986 ft 513 kts 96°
2026-05-07 09:09 36.61164 6.21722 31990 ft 513 kts 96°
2026-05-07 09:09 36.60393 6.30554 31995 ft 513 kts 96°
2026-05-07 09:10 36.59616 6.39382 31999 ft 513 kts 96°
2026-05-07 09:10 36.58832 6.48210 32003 ft 513 kts 96°
2026-05-07 09:11 36.58042 6.57035 32007 ft 513 kts 97°
2026-05-07 09:11 36.57245 6.65855 32012 ft 513 kts 97°
2026-05-07 09:12 36.56441 6.74682 32012 ft 513 kts 97°
2026-05-07 09:12 36.55631 6.83501 32012 ft 513 kts 97°
2026-05-07 09:13 36.54814 6.92325 32012 ft 513 kts 97°
2026-05-07 09:13 36.53991 7.01150 32012 ft 513 kts 97°
2026-05-07 09:14 36.53161 7.09960 32012 ft 513 kts 97°
2026-05-07 09:14 36.52325 7.18777 32012 ft 513 kts 97°
2026-05-07 09:15 36.51482 7.27590 32012 ft 513 kts 97°
2026-05-07 09:15 36.50633 7.36408 32012 ft 513 kts 97°
2026-05-07 09:16 36.49777 7.45222 32012 ft 513 kts 97°
2026-05-07 09:16 36.48915 7.54022 32012 ft 513 kts 97°
2026-05-07 09:17 36.48046 7.62836 32012 ft 513 kts 97°
2026-05-07 09:17 36.47171 7.71638 32012 ft 513 kts 97°
2026-05-07 09:18 36.46290 7.80437 32012 ft 513 kts 97°
2026-05-07 09:18 36.45401 7.89243 32012 ft 513 kts 97°
2026-05-07 09:19 36.44507 7.98040 32011 ft 513 kts 97°
2026-05-07 09:19 36.43606 8.06834 32011 ft 513 kts 97°
2026-05-07 09:20 36.42698 8.15628 32011 ft 513 kts 97°
2026-05-07 09:20 36.41784 8.24422 32011 ft 513 kts 98°
2026-05-07 09:21 36.40864 8.33210 32011 ft 513 kts 98°
2026-05-07 09:21 36.39937 8.42000 32011 ft 513 kts 98°
2026-05-07 09:22 36.39005 8.50782 32011 ft 513 kts 98°
2026-05-07 09:22 36.38064 8.59571 32011 ft 513 kts 98°
2026-05-07 09:23 36.37119 8.68350 32011 ft 513 kts 98°
2026-05-07 09:23 36.36167 8.77125 32011 ft 513 kts 98°
2026-05-07 09:24 36.35208 8.85902 32011 ft 513 kts 98°
2026-05-07 09:24 36.34242 8.94679 32011 ft 513 kts 98°
2026-05-07 09:25 36.33270 9.03453 32011 ft 513 kts 98°
2026-05-07 09:25 36.32292 9.12228 32011 ft 513 kts 98°
2026-05-07 09:26 36.31308 9.20992 32011 ft 513 kts 98°
2026-05-07 09:26 36.30317 9.29756 32011 ft 513 kts 98°
2026-05-07 09:27 36.29319 9.38525 32011 ft 513 kts 98°
2026-05-07 09:28 36.27812 9.51661 32011 ft 513 kts 98°
2026-05-07 09:28 36.26798 9.60424 32011 ft 513 kts 98°
2026-05-07 09:29 36.25951 9.67704 32011 ft 513 kts 98°
2026-05-07 09:29 36.24927 9.76450 32011 ft 513 kts 98°
2026-05-07 09:30 36.23895 9.85203 32010 ft 513 kts 98°
2026-05-07 09:30 36.22857 9.93954 32010 ft 513 kts 99°
2026-05-07 09:31 36.21813 10.02703 32010 ft 513 kts 99°
2026-05-07 09:31 36.20763 10.11447 32010 ft 513 kts 99°
2026-05-07 09:32 36.19706 10.20187 32010 ft 513 kts 99°
2026-05-07 09:32 36.18643 10.28926 32010 ft 513 kts 99°
2026-05-07 09:33 36.17573 10.37669 32010 ft 513 kts 99°
2026-05-07 09:33 36.16497 10.46403 32010 ft 513 kts 99°
2026-05-07 09:34 36.15415 10.55135 32010 ft 513 kts 99°
2026-05-07 09:34 36.14327 10.63864 32010 ft 513 kts 99°
2026-05-07 09:35 36.13232 10.72592 32010 ft 513 kts 99°
2026-05-07 09:35 36.12130 10.81320 32010 ft 513 kts 99°
2026-05-07 09:36 36.11023 10.90038 32010 ft 513 kts 99°
2026-05-07 09:36 36.09909 10.98760 32010 ft 513 kts 99°
2026-05-07 09:37 36.08789 11.07481 32010 ft 513 kts 99°
2026-05-07 09:37 36.07663 11.16192 32010 ft 513 kts 99°
2026-05-07 09:38 36.06530 11.24904 32010 ft 513 kts 99°
2026-05-07 09:38 36.05392 11.33604 32010 ft 513 kts 99°
2026-05-07 09:39 36.04246 11.42322 32010 ft 513 kts 99°
2026-05-07 09:39 36.03094 11.51032 32010 ft 513 kts 99°
2026-05-07 09:40 36.01935 11.59736 32010 ft 513 kts 99°
2026-05-07 09:40 36.00771 11.68440 32010 ft 513 kts 100°
2026-05-07 09:41 35.99600 11.77139 32009 ft 513 kts 100°
2026-05-07 09:41 35.98424 11.85825 32009 ft 513 kts 100°
2026-05-07 09:42 35.97241 11.94519 32009 ft 513 kts 100°
2026-05-07 09:42 35.96051 12.03217 32009 ft 513 kts 100°
2026-05-07 09:43 35.94856 12.11897 32009 ft 513 kts 100°
2026-05-07 09:43 35.93654 12.20585 32009 ft 513 kts 100°
2026-05-07 09:44 35.92445 12.29269 32009 ft 513 kts 100°
2026-05-07 09:44 35.91232 12.37940 32009 ft 513 kts 100°
2026-05-07 09:45 35.90015 12.46593 32008 ft 506 kts 100°
2026-05-07 09:45 35.89420 12.50809 31911 ft 491 kts 100°
2026-05-07 09:45 35.88838 12.54922 31154 ft 486 kts 100°
2026-05-07 09:45 35.88253 12.59040 29946 ft 490 kts 100°
2026-05-07 09:46 35.87659 12.63207 28778 ft 494 kts 100°
2026-05-07 09:46 35.87070 12.67343 28083 ft 486 kts 100°
2026-05-07 09:46 35.86488 12.71407 27488 ft 476 kts 101°
2026-05-07 09:46 35.85917 12.75388 26944 ft 467 kts 101°
2026-05-07 09:47 35.85357 12.79283 26453 ft 457 kts 101°
2026-05-07 09:47 35.84807 12.83099 26010 ft 447 kts 101°
2026-05-07 09:47 35.84268 12.86832 25649 ft 436 kts 101°
2026-05-07 09:47 35.83739 12.90488 25064 ft 433 kts 101°
2026-05-07 09:48 35.83212 12.94118 24531 ft 428 kts 101°
2026-05-07 09:48 35.82691 12.97704 24047 ft 422 kts 101°
2026-05-07 09:48 35.82175 13.01245 23563 ft 417 kts 101°
2026-05-07 09:48 35.81663 13.04751 23075 ft 413 kts 101°
2026-05-07 09:49 35.81156 13.08212 22608 ft 409 kts 101°
2026-05-07 09:49 35.80654 13.11638 22160 ft 404 kts 101°
2026-05-07 09:49 35.80156 13.15026 21716 ft 400 kts 101°
2026-05-07 09:49 35.79662 13.18381 21274 ft 396 kts 101°
2026-05-07 09:50 35.79173 13.21698 20832 ft 393 kts 101°
2026-05-07 09:50 35.78685 13.24996 20393 ft 389 kts 101°
2026-05-07 09:50 35.78202 13.28258 19961 ft 386 kts 101°
2026-05-07 09:50 35.77721 13.31502 19533 ft 383 kts 101°
2026-05-07 09:51 35.77242 13.34720 19109 ft 380 kts 101°
2026-05-07 09:51 35.76767 13.37910 18688 ft 378 kts 101°
2026-05-07 09:51 35.76294 13.41077 18270 ft 375 kts 101°
2026-05-07 09:51 35.75825 13.44218 17855 ft 372 kts 101°
2026-05-07 09:52 35.75355 13.47350 17442 ft 370 kts 101°
2026-05-07 09:52 35.74890 13.50454 17032 ft 368 kts 101°
2026-05-07 09:52 35.74426 13.53542 16624 ft 366 kts 101°
2026-05-07 09:52 35.73964 13.56609 16219 ft 364 kts 101°
2026-05-07 09:53 35.73503 13.59660 15815 ft 362 kts 101°
2026-05-07 09:53 35.73045 13.62691 15415 ft 360 kts 101°
2026-05-07 09:53 35.72587 13.65711 15016 ft 358 kts 101°
2026-05-07 09:53 35.72132 13.68711 14619 ft 356 kts 101°
2026-05-07 09:54 35.71679 13.71698 14224 ft 354 kts 101°
2026-05-07 09:54 35.71226 13.74672 13830 ft 353 kts 101°
2026-05-07 09:54 35.70774 13.77634 13438 ft 351 kts 101°
2026-05-07 09:54 35.70324 13.80577 13049 ft 350 kts 101°
2026-05-07 09:55 35.69876 13.83509 12661 ft 348 kts 101°
2026-05-07 09:55 35.69428 13.86432 12274 ft 347 kts 101°
2026-05-07 09:55 35.68981 13.89345 11888 ft 346 kts 101°
2026-05-07 09:55 35.68536 13.92240 11504 ft 344 kts 101°
2026-05-07 09:56 35.68091 13.95129 11121 ft 343 kts 101°
2026-05-07 09:56 35.67646 13.98009 10739 ft 342 kts 101°
2026-05-07 09:56 35.67203 14.00875 10359 ft 341 kts 101°
2026-05-07 09:56 35.66758 14.03747 9833 ft 344 kts 101°
2026-05-07 09:57 35.66310 14.06635 9453 ft 343 kts 101°
2026-05-07 09:57 35.65867 14.09493 9210 ft 337 kts 101°
2026-05-07 09:57 35.65432 14.12293 9044 ft 329 kts 101°
2026-05-07 09:57 35.65006 14.15026 8932 ft 321 kts 101°
2026-05-07 09:58 35.64592 14.17679 8862 ft 312 kts 102°
2026-05-07 09:58 35.64188 14.20260 8825 ft 302 kts 102°
2026-05-07 09:58 35.63798 14.22754 8807 ft 293 kts 102°
2026-05-07 09:58 35.63413 14.25205 8606 ft 292 kts 102°
2026-05-07 09:59 35.63029 14.27653 8390 ft 291 kts 102°
2026-05-07 09:59 35.62645 14.30096 8174 ft 291 kts 102°
2026-05-07 09:59 35.62262 14.32526 7990 ft 289 kts 102°
2026-05-07 09:59 35.61882 14.34939 7858 ft 286 kts 102°
2026-05-07 10:00 35.61506 14.37329 7640 ft 286 kts 102°
2026-05-07 10:00 35.61122 14.39749 7315 ft 291 kts 102°
2026-05-07 10:00 35.60737 14.42184 7119 ft 290 kts 102°
2026-05-07 10:00 35.60353 14.44609 6889 ft 290 kts 102°
2026-05-07 10:01 35.59965 14.47056 6614 ft 292 kts 102°
2026-05-07 10:01 35.59574 14.49507 6399 ft 292 kts 101°
2026-05-07 10:01 35.59184 14.51956 6185 ft 292 kts 101°
2026-05-07 10:01 35.58794 14.54398 5980 ft 291 kts 101°
2026-05-07 10:02 35.58464 14.56839 5812 ft 288 kts 90°
2026-05-07 10:02 35.58776 14.59224 5627 ft 283 kts 65°
2026-05-07 10:02 35.59838 14.61217 5386 ft 279 kts 44°
2026-05-07 10:02 35.61226 14.62861 5251 ft 274 kts 39°
2026-05-07 10:03 35.62653 14.64378 5161 ft 269 kts 38°
2026-05-07 10:03 35.64060 14.65888 4993 ft 268 kts 40°
2026-05-07 10:03 35.65441 14.67424 4800 ft 267 kts 33°
2026-05-07 10:03 35.67140 14.68261 4596 ft 264 kts
2026-05-07 10:04 35.68948 14.68049 4396 ft 262 kts 340°
2026-05-07 10:04 35.70510 14.67006 4237 ft 248 kts 323°
2026-05-07 10:04 35.71734 14.65622 3873 ft 230 kts 314°
2026-05-07 10:04 35.72777 14.64207 3495 ft 218 kts 311°
2026-05-07 10:05 35.73745 14.62819 3140 ft 211 kts 310°
2026-05-07 10:05 35.74660 14.61487 2810 ft 193 kts 310°
2026-05-07 10:05 35.75511 14.60305 2522 ft 177 kts 314°
2026-05-07 10:05 35.76360 14.59285 2268 ft 165 kts 316°
2026-05-07 10:06 35.77157 14.58329 2038 ft 155 kts 315°
2026-05-07 10:06 35.77896 14.57407 1827 ft 148 kts 314°
2026-05-07 10:06 35.78607 14.56524 1630 ft 142 kts 315°
2026-05-07 10:06 35.79285 14.55687 1445 ft 135 kts 315°
2026-05-07 10:07 35.79933 14.54885 1268 ft 129 kts 315°
2026-05-07 10:07 35.80550 14.54121 1103 ft 123 kts 315°
2026-05-07 10:07 35.81138 14.53393 948 ft 117 kts 315°
2026-05-07 10:07 35.81707 14.52689 809 ft 115 kts 315°
2026-05-07 10:08 35.82272 14.51990 667 ft 115 kts 315°
2026-05-07 10:08 35.82836 14.51291 524 ft 115 kts 315°
2026-05-07 10:08 35.83399 14.50593 378 ft 115 kts 315°
2026-05-07 10:08 35.83941 14.49922 317 ft 101 kts 315°
2026-05-07 10:09 35.84279 14.49504 316 ft 55 kts 315°
2026-05-07 10:09 35.84492 14.49245 316 ft 28 kts 316°
2026-05-07 10:09 35.84587 14.49133 316 ft 1 kts 316°
2026-05-07 10:09 35.84588 14.49131 316 ft 0 kts 316°
2026-05-07 10:10 35.84622 14.49092 316 ft 20 kts 317°
2026-05-07 10:10 35.84635 14.49077 316 ft 0 kts 317°